sat.trackr.live / text

‹ back to catalog

STARLINK-34235

NORAD 64760 · 2025-147F

PAYLOAD ACTIVE UNKNOWN

§ Identity

Operator
Country
US
Launch date
2025-07-08
Launch site
AFETR
Launch vehicle
Mass (kg)
RCS (m²)

Purposes: comms

External: N2YO · Heavens-Above · Gunter

§ Orbital elements

Epoch: 2026-05-24T18:25:39.990144Z

Period
93.85 min
Inclination
53.1589°
Eccentricity
0.0001138
Mean motion
15.34397993 rev/d
Perigee alt
461.9 km
Apogee alt
463.5 km
Semi-major
6,840.8 km
B*
3.5337e-4
RAAN
249.0955°
Arg perigee
79.1339°
Mean anomaly
280.9791°
Rev number
5,044

§ Raw data

STARLINK-342351 64760U 25147F   26144.76782396  .00011581  00000+0  35337-3 0  99962 64760  53.1589 249.0955 0001138  79.1339 280.9791 15.34397993 50447

JSON: /api/v1/satellites/64760 · /tle

For live sub-satellite position, see the globe view (requires WebGL).

§ Visibility from observer

Set your observer location to see the next 7 days of passes ≥ 10°. The values pass through the URL so the page stays shareable.

No JS? Fill the form by hand. The geolocation button needs JavaScript.